DW8016 Weather Reports


time (UTC)temp
F
wind
direction
speed
knots
gust
knots
rain 1hr
in
rain 24hr
in
rain mn
in
humidity
%
barometer
mb
20260903084453 74 162 0.0 0.9 0.00 0.39 0.00 93 1016.1
20260903083444 74 162 0.0 2.6 0.00 0.39 0.00 93 1015.8
20260903082420 74 162 0.0 0.0 0.00 0.39 0.00 93 1015.9
20260903081354 74 162 0.0 0.0 0.00 0.39 0.00 93 1015.9
20260903075307 74 167 0.0 4.3 0.00 0.39 0.00 93 1015.9
20260903073107 74 117 0.0 4.3 0.00 0.39 0.00 93 1016.1
20260903072036 73 168 0.0 4.3 0.00 0.39 0.00 93 1016.0
20260903071015 73 138 0.0 2.6 0.00 0.39 0.00 93 1016.0
20260903070005 74 111 0.0 2.6 0.00 0.39 0.00 93 1016.0
20260903064946 74 124 0.0 0.9 0.00 0.39 0.00 93 1016.0
20260903063934 74 160 0.0 5.2 0.00 0.39 0.00 93 1016.1
20260903061736 74 145 0.0 0.0 0.00 0.39 0.00 93 1016.2
20260903060744 74 145 0.0 0.0 0.00 0.39 0.00 93 1016.2
20260903055743 74 138 0.9 3.5 0.00 0.39 0.00 93 1016.1
20260903054754 74 107 0.0 2.6 0.00 0.39 0.00 94 1016.4
20260903053725 74 106 0.0 0.0 0.00 0.39 0.00 94 1016.3
20260903052746 73 106 0.0 1.7 0.00 0.39 0.00 94 1016.3
20260903051753 73 106 0.0 0.0 0.00 0.39 0.00 94 1016.3
20260903050735 73 106 0.0 0.0 0.00 0.39 0.00 94 1016.5
20260903045746 73 106 0.0 0.0 0.00 0.39 0.00 94 1016.6
20260903044743 73 106 0.0 0.0 0.00 0.39 0.00 94 1016.7
20260903043731 73 106 0.0 0.0 0.00 0.39 0.00 94 1016.7
20260903042710 73 106 0.0 0.0 0.00 0.39 0.00 94 1016.7
20260903040623 73 106 0.0 0.0 0.00 0.39 0.00 94 1017.0
20260903034433 73 106 0.0 0.0 0.00 0.39 0.40 93 1017.0
20260903032338 73 106 0.0 0.0 0.00 0.39 0.40 93 1017.0
20260903031319 74 106 0.0 0.0 0.00 0.39 0.40 93 1017.1
20260903030308 74 106 0.0 2.6 0.00 0.39 0.40 93 1017.0
20260903025248 74 116 0.0 0.0 0.00 0.39 0.40 94 1016.9
20260903024305 74 200 0.0 0.0 0.00 0.39 0.40 94 1016.9
20260903023321 74 200 0.0 0.0 0.00 0.39 0.40 94 1017.0
20260903022258 74 200 0.0 0.0 0.00 0.39 0.40 93 1016.8
20260903021305 74 200 0.0 0.0 0.00 0.39 0.40 93 1016.7
20260903014011 74 200 0.0 0.0 0.00 0.39 0.40 93 1016.3
20260903013009 74 200 0.0 0.0 0.00 0.39 0.40 93 1016.6
20260903011956 74 200 0.0 0.0 0.00 0.39 0.40 93 1016.7
20260903010934 74 200 0.0 0.0 0.00 0.39 0.40 93 1016.9
20260903005946 74 200 0.0 0.0 0.00 0.39 0.40 93 1016.9
20260903004929 74 200 0.0 0.0 0.00 0.39 0.40 93 1016.9
20260903003905 74 200 0.0 0.0 0.00 0.39 0.40 92 1016.6
20260903002853 75 200 0.0 0.0 0.00 0.39 0.40 92 1016.5
20260903001819 75 200 0.0 0.0 0.00 0.39 0.40 92 1016.7
20260903000826 75 200 0.0 0.0 0.00 0.39 0.40 91 1016.5
20260902235826 75 200 0.0 0.0 0.00 0.39 0.40 91 1016.7
20260902233732 75 200 0.0 0.0 0.00 0.39 0.40 90 1016.7
20260902232710 76 200 0.0 0.0 0.00 0.39 0.40 89 1016.4
20260902224334 77 200 0.0 0.0 0.00 0.39 0.40 85 1016.9
20260902223318 77 200 0.0 0.0 0.00 0.39 0.40 87 1016.9
20260902221117 76 200 0.0 0.9 0.00 0.39 0.40 89 1016.8
20260902220112 76 200 0.0 0.0 0.00 0.39 0.40 92 1017.0
20260902215110 76 200 0.0 0.0 0.00 0.39 0.40 91 1017.1
20260902212929 76 200 0.0 0.0 0.00 0.39 0.40 92 1017.5
20260902210737 75 200 0.0 0.0 0.00 0.39 0.40 92 1017.3
20260902204520 75 200 0.0 0.9 0.00 0.39 0.40 93 1017.4
20260902203507 75 200 0.0 0.0 0.00 0.39 0.40 92 1017.1
20260902201257 75 200 0.0 0.0 0.00 0.39 0.40 92 1017.1
20260902200310 75 200 0.0 0.0 0.00 0.39 0.40 92 1017.5
20260902195322 75 200 0.0 0.0 0.00 0.39 0.40 92 1017.9
20260902194254 75 200 0.0 0.0 0.00 0.39 0.40 91 1017.5
20260902193237 75 198 0.0 1.7 0.00 0.39 0.40 91 1017.2
20260902190018 74 105 0.0 0.0 0.00 0.39 0.40 89 1016.8
20260902185010 74 105 0.0 0.0 0.00 0.39 0.40 91 1017.7
20260902184033 74 105 0.0 0.0 0.04 0.39 0.40 90 1017.5
20260902181816 77 97 0.0 3.5 3.45 0.18 0.24 81 1019.3
20260902180829 81 92 1.7 7.0 0.27 0.02 0.03 76 1019.5
20260902174641 90 60 0.9 4.3 0.00 0.00 0.00 64 1018.4
20260902173638 92 0 0.9 4.3 0.00 0.00 0.00 59 1018.2
20260902172628 92 82 0.0 3.5 0.00 0.00 0.00 59 1018.1
20260902171601 91 323 0.9 3.5 0.00 0.00 0.00 61 1018.0
20260902170602 91 355 0.0 0.0 0.00 0.00 0.00 60 1017.9
20260902165530 91 5 0.9 5.2 0.00 0.00 0.00 59 1017.8
20260902164536 92 185 0.9 5.2 0.00 0.00 0.00 60 1017.7
20260902163548 92 103 0.0 5.2 0.00 0.00 0.00 59 1017.7
20260902162523 91 104 0.0 3.5 0.00 0.00 0.00 58 1017.8
20260902161539 92 42 0.0 0.0 0.00 0.00 0.00 59 1017.8
20260902155333 91 74 0.9 4.3 0.00 0.00 0.00 60 1017.6
20260902154332 91 192 0.0 2.6 0.00 0.00 0.00 60 1017.6
20260902153316 90 104 0.0 5.2 0.00 0.00 0.00 61 1017.6
20260902152326 90 115 0.9 5.2 0.00 0.00 0.00 62 1017.6
20260902151304 89 105 0.9 5.2 0.00 0.00 0.00 63 1017.5
20260902150303 89 187 0.0 0.9 0.00 0.00 0.00 64 1017.5
20260902145257 87 107 1.7 4.3 0.00 0.00 0.00 64 1017.6
20260902144312 87 111 0.9 5.2 0.00 0.00 0.00 65 1017.6
20260902143333 87 119 2.6 5.2 0.00 0.00 0.00 66 1017.4
20260902142259 88 114 0.0 4.3 0.00 0.00 0.00 65 1017.6
20260902141323 87 84 0.9 4.3 0.00 0.00 0.00 66 1017.6
20260902140319 87 88 0.9 4.3 0.00 0.00 0.00 67 1017.6
20260902134131 86 123 0.9 4.3 0.00 0.00 0.00 68 1017.4
20260902132003 85 108 0.0 0.9 0.00 0.00 0.00 70 1017.5
20260902125858 83 115 0.0 3.5 0.00 0.00 0.00 72 1017.3
20260902124844 82 284 0.0 0.0 0.00 0.00 0.00 77 1017.4
20260902123851 81 275 0.0 0.0 0.00 0.00 0.00 79 1017.3
20260902121746 78 275 0.0 0.0 0.00 0.00 0.00 84 1017.1
20260902120801 77 275 0.0 0.0 0.00 0.00 0.00 87 1017.1
20260902114645 76 275 0.0 0.0 0.00 0.00 0.00 88 1017.0
20260902113615 76 275 0.0 0.0 0.00 0.00 0.00 88 1016.9
20260902112621 76 275 0.0 0.0 0.00 0.00 0.00 89 1016.9
20260902111554 76 275 0.0 0.0 0.00 0.00 0.00 90 1017.0
20260902110556 76 275 0.0 0.0 0.00 0.00 0.00 89 1017.0
20260902105556 75 275 0.0 0.0 0.00 0.00 0.00 89 1017.1
20260902104523 75 275 0.0 0.0 0.00 0.00 0.00 89 1017.1
20260902102351 76 275 0.0 0.0 0.00 0.00 0.00 89 1017.0
20260902101347 76 275 0.0 0.0 0.00 0.00 0.00 88 1017.0
20260902100333 76 275 0.0 0.0 0.00 0.00 0.00 88 1016.7
20260902095351 76 275 0.0 0.0 0.00 0.00 0.00 89 1016.7
20260902093233 75 275 0.0 0.0 0.00 0.00 0.00 88 1016.7
20260902092237 75 275 0.0 0.0 0.00 0.00 0.00 88 1016.8
20260902091210 75 275 0.0 0.0 0.00 0.00 0.00 88 1016.7
20260902090206 75 275 0.0 0.0 0.00 0.00 0.00 88 1016.7